KAL402 YSSY-RKSI

Flight info

Callsign KAL402
Flight time N/A
Altitude 36000
Route RIC H530 LASUD Q293 AKUMI Q147 VOMPA/N0492F380 Q499 NONUM DCT MEMIG A216 HOOVR/N0485F400 A216 RIDLL G339 LUKRA Y208 SASIK/N0485F410 G339 DGC/N0491F400 G339 PSN Y782 BITUX Z53 BASEM Y685 GUKDO CUN2M
Aircraft A359/H-SDE2E3GHIJ3J4J5LM1ORWXY/LB1D1

Departure

Time 2026-04-23 20:53
Airport Sydney Kingsford Smith International Airport (YSSY)

Arrival

Time N/A
Airport Incheon International Airport (RKSI)
Time Latitude Longitude Altitude Speed Heading
2026-04-23 20:13 -33.94035 151.16542 27 ft 0 kts 345°
2026-04-23 20:33 -33.94037 151.16543 27 ft 3 kts 345°
2026-04-23 20:33 -33.94053 151.16548 27 ft 3 kts 345°
2026-04-23 20:34 -33.94071 151.16554 27 ft 3 kts 345°
2026-04-23 20:34 -33.94090 151.16557 26 ft 3 kts
2026-04-23 20:34 -33.94108 151.16551 26 ft 3 kts 44°
2026-04-23 20:34 -33.94117 151.16538 26 ft 0 kts 69°
2026-04-23 20:38 -33.94116 151.16542 27 ft 2 kts 74°
2026-04-23 20:38 -33.94112 151.16589 27 ft 9 kts 86°
2026-04-23 20:39 -33.94104 151.16654 27 ft 8 kts 78°
2026-04-23 20:39 -33.94088 151.16734 27 ft 8 kts 74°
2026-04-23 20:39 -33.94070 151.16804 27 ft 9 kts 73°
2026-04-23 20:39 -33.94051 151.16886 27 ft 11 kts 74°
2026-04-23 20:40 -33.94029 151.16979 27 ft 12 kts 72°
2026-04-23 20:40 -33.94005 151.17080 27 ft 11 kts 75°
2026-04-23 20:40 -33.94002 151.17090 26 ft 0 kts 75°
2026-04-23 20:42 -33.94002 151.17091 26 ft 0 kts 75°
2026-04-23 20:42 -33.94000 151.17098 26 ft 2 kts 75°
2026-04-23 20:42 -33.93991 151.17138 27 ft 7 kts 74°
2026-04-23 20:42 -33.93991 151.17209 29 ft 9 kts 116°
2026-04-23 20:43 -33.94037 151.17239 27 ft 7 kts 162°
2026-04-23 20:43 -33.94087 151.17254 28 ft 8 kts 167°
2026-04-23 20:43 -33.94147 151.17270 28 ft 10 kts 168°
2026-04-23 20:43 -33.94221 151.17289 28 ft 12 kts 168°
2026-04-23 20:44 -33.94300 151.17309 30 ft 12 kts 168°
2026-04-23 20:44 -33.94382 151.17330 32 ft 12 kts 168°
2026-04-23 20:44 -33.94476 151.17354 32 ft 15 kts 168°
2026-04-23 20:44 -33.94587 151.17384 32 ft 18 kts 167°
2026-04-23 20:45 -33.94715 151.17417 32 ft 20 kts 168°
2026-04-23 20:45 -33.94859 151.17455 26 ft 21 kts 168°
2026-04-23 20:45 -33.94987 151.17488 29 ft 19 kts 168°
2026-04-23 20:45 -33.95117 151.17522 28 ft 20 kts 168°
2026-04-23 20:46 -33.95241 151.17554 25 ft 16 kts 168°
2026-04-23 20:46 -33.95350 151.17582 29 ft 16 kts 168°
2026-04-23 20:46 -33.95457 151.17611 26 ft 16 kts 165°
2026-04-23 20:46 -33.95557 151.17636 27 ft 12 kts 168°
2026-04-23 20:47 -33.95639 151.17657 30 ft 12 kts 167°
2026-04-23 20:47 -33.95717 151.17677 31 ft 12 kts 167°
2026-04-23 20:47 -33.95803 151.17700 30 ft 14 kts 167°
2026-04-23 20:47 -33.95910 151.17727 28 ft 17 kts 168°
2026-04-23 20:48 -33.96026 151.17756 30 ft 17 kts 168°
2026-04-23 20:48 -33.96144 151.17786 30 ft 18 kts 167°
2026-04-23 20:48 -33.96276 151.17822 28 ft 20 kts 168°
2026-04-23 20:48 -33.96349 151.17841 29 ft 8 kts 168°
2026-04-23 20:49 -33.96404 151.17857 30 ft 8 kts 162°
2026-04-23 20:49 -33.96438 151.17906 30 ft 8 kts 101°
2026-04-23 20:49 -33.96438 151.17912 30 ft 0 kts 93°
2026-04-23 20:50 -33.96439 151.17916 30 ft 2 kts 93°
2026-04-23 20:50 -33.96438 151.17958 30 ft 8 kts 84°
2026-04-23 20:50 -33.96417 151.18038 30 ft 7 kts 52°
2026-04-23 20:51 -33.96388 151.18048 30 ft 6 kts
2026-04-23 20:51 -33.96374 151.18046 30 ft 0 kts 349°
2026-04-23 20:52 -33.96369 151.18045 30 ft 7 kts 349°
2026-04-23 20:52 -33.96097 151.17978 28 ft 71 kts 347°
2026-04-23 20:52 -33.95430 151.17804 28 ft 124 kts 348°
2026-04-23 20:52 -33.94429 151.17548 42 ft 168 kts 347°
2026-04-23 20:53 -33.93307 151.17250 681 ft 158 kts 346°
2026-04-23 20:53 -33.92168 151.16886 985 ft 179 kts 346°
2026-04-23 20:53 -33.90914 151.16453 1353 ft 196 kts 346°
2026-04-23 20:53 -33.89508 151.16143 1536 ft 216 kts
2026-04-23 20:54 -33.87943 151.16044 1711 ft 238 kts 344°
2026-04-23 20:54 -33.86556 151.14910 1992 ft 256 kts 307°
2026-04-23 20:54 -33.85717 151.12987 2504 ft 264 kts 294°
2026-04-23 20:54 -33.84852 151.11019 3112 ft 268 kts 302°
2026-04-23 20:55 -33.83804 151.09158 3730 ft 270 kts 307°
2026-04-23 20:55 -33.82638 151.07373 4330 ft 272 kts 310°
2026-04-23 20:55 -33.81402 151.05631 4964 ft 274 kts 312°
2026-04-23 20:55 -33.80132 151.03915 5584 ft 276 kts 314°
2026-04-23 20:56 -33.78830 151.02191 6148 ft 280 kts 315°
2026-04-23 20:56 -33.77500 151.00460 6766 ft 283 kts 315°
2026-04-23 20:56 -33.76151 150.98720 7353 ft 286 kts 315°
2026-04-23 20:56 -33.74784 150.96961 7962 ft 289 kts 315°
2026-04-23 20:57 -33.73405 150.95189 8577 ft 292 kts 314°
2026-04-23 20:57 -33.72480 150.94002 9003 ft 294 kts 314°
2026-04-23 20:57 -33.70617 150.91614 9826 ft 298 kts 313°
2026-04-23 20:57 -33.69188 150.89782 10380 ft 303 kts 313°
2026-04-23 20:58 -33.67729 150.87915 10837 ft 312 kts 313°
2026-04-23 20:58 -33.66706 150.86605 11010 ft 323 kts 313°
2026-04-23 20:58 -33.65133 150.84593 11264 ft 339 kts 313°
2026-04-23 20:58 -33.63500 150.82507 11515 ft 353 kts 313°
2026-04-23 20:59 -33.61782 150.80312 11750 ft 367 kts 313°
2026-04-23 20:59 -33.59999 150.78038 11985 ft 381 kts 313°
2026-04-23 20:59 -33.58140 150.75709 12262 ft 391 kts 315°
2026-04-23 20:59 -33.56184 150.73403 12714 ft 397 kts 316°
2026-04-23 21:00 -33.54182 150.71115 13210 ft 400 kts 316°
2026-04-23 21:00 -33.52150 150.68811 13726 ft 403 kts 316°
2026-04-23 21:00 -33.50108 150.66490 14249 ft 406 kts 316°
2026-04-23 21:00 -33.48053 150.64141 14711 ft 410 kts 316°
2026-04-23 21:01 -33.45986 150.61767 15159 ft 413 kts 316°
2026-04-23 21:01 -33.43907 150.59369 15653 ft 416 kts 316°
2026-04-23 21:01 -33.41816 150.56953 16141 ft 419 kts 316°
2026-04-23 21:01 -33.39714 150.54523 16598 ft 422 kts 316°
2026-04-23 21:02 -33.37587 150.52079 17071 ft 425 kts 316°
2026-04-23 21:02 -33.35445 150.49616 17546 ft 429 kts 316°
2026-04-23 21:02 -33.33289 150.47133 17997 ft 432 kts 316°
2026-04-23 21:02 -33.31144 150.44659 18428 ft 435 kts 316°
2026-04-23 21:03 -33.28955 150.42137 18856 ft 439 kts 316°
2026-04-23 21:03 -33.26745 150.39594 19277 ft 442 kts 316°
2026-04-23 21:03 -33.24523 150.37039 19695 ft 444 kts 316°
2026-04-23 21:03 -33.22288 150.34468 20123 ft 447 kts 316°
2026-04-23 21:04 -33.20042 150.31888 20555 ft 450 kts 316°
2026-04-23 21:04 -33.17775 150.29293 20972 ft 453 kts 316°
2026-04-23 21:04 -33.15488 150.26684 21423 ft 456 kts 316°
2026-04-23 21:04 -33.13192 150.24060 21874 ft 459 kts 316°
2026-04-23 21:05 -33.10879 150.21418 22358 ft 461 kts 316°
2026-04-23 21:05 -33.08555 150.18764 22799 ft 465 kts 316°
2026-04-23 21:05 -33.06215 150.16092 23277 ft 467 kts 315°
2026-04-23 21:05 -33.03861 150.13407 23767 ft 469 kts 315°
2026-04-23 21:06 -33.01489 150.10703 24190 ft 473 kts 315°
2026-04-23 21:06 -32.99139 150.08026 24542 ft 476 kts 315°
2026-04-23 21:06 -32.96739 150.05294 24900 ft 479 kts 315°
2026-04-23 21:06 -32.94322 150.02546 25254 ft 482 kts 315°
2026-04-23 21:07 -32.91886 149.99784 25626 ft 485 kts 315°
2026-04-23 21:07 -32.89433 149.97004 25971 ft 488 kts 315°
2026-04-23 21:07 -32.86972 149.94211 26333 ft 491 kts 315°
2026-04-23 21:07 -32.84491 149.91397 26667 ft 494 kts 315°
2026-04-23 21:08 -32.81999 149.88572 27007 ft 497 kts 315°
2026-04-23 21:08 -32.79488 149.85730 27374 ft 499 kts 315°
2026-04-23 21:08 -32.76968 149.82881 27716 ft 502 kts 315°
2026-04-23 21:08 -32.74426 149.80012 28045 ft 505 kts 315°
2026-04-23 21:09 -32.71870 149.77133 28373 ft 507 kts 315°
2026-04-23 21:09 -32.69303 149.74238 28683 ft 510 kts 315°
2026-04-23 21:09 -32.66722 149.71328 28995 ft 513 kts 315°
2026-04-23 21:09 -32.64129 149.68406 29299 ft 515 kts 315°
2026-04-23 21:10 -32.61556 149.65510 29580 ft 518 kts 315°
2026-04-23 21:10 -32.58929 149.62558 29845 ft 521 kts 315°
2026-04-23 21:10 -32.56356 149.59533 30098 ft 522 kts 310°
2026-04-23 21:10 -32.53982 149.56281 30495 ft 521 kts 308°
2026-04-23 21:11 -32.51658 149.52986 30837 ft 520 kts 307°
2026-04-23 21:11 -32.49363 149.49678 31118 ft 520 kts 307°
2026-04-23 21:11 -32.47077 149.46359 31402 ft 520 kts 307°
2026-04-23 21:11 -32.44788 149.43030 31680 ft 520 kts 307°
2026-04-23 21:12 -32.42528 149.39747 31950 ft 520 kts 307°
2026-04-23 21:12 -32.40239 149.36432 32212 ft 521 kts 307°
2026-04-23 21:12 -32.37943 149.33113 32479 ft 521 kts 307°
2026-04-23 21:12 -32.35646 149.29800 32752 ft 521 kts 307°
2026-04-23 21:13 -32.33346 149.26487 33012 ft 521 kts 307°
2026-04-23 21:13 -32.31046 149.23178 33261 ft 521 kts 307°
2026-04-23 21:13 -32.28746 149.19871 33504 ft 521 kts 306°
2026-04-23 21:13 -32.26443 149.16564 33757 ft 521 kts 306°
2026-04-23 21:14 -32.24142 149.13261 34011 ft 521 kts 306°
2026-04-23 21:14 -32.21831 149.09949 34253 ft 521 kts 306°
2026-04-23 21:14 -32.19525 149.06649 34479 ft 521 kts 306°
2026-04-23 21:14 -32.17214 149.03348 34644 ft 522 kts 306°
2026-04-23 21:15 -32.12567 148.96704 34889 ft 524 kts 306°
2026-04-23 21:15 -32.10185 148.93455 35172 ft 525 kts 310°
2026-04-23 21:15 -32.07470 148.90560 35370 ft 528 kts 320°
2026-04-23 21:16 -32.04430 148.88221 35537 ft 532 kts 330°
2026-04-23 21:16 -32.01023 148.86494 35674 ft 534 kts 341°
2026-04-23 21:16 -31.97429 148.85362 35845 ft 535 kts 346°
2026-04-23 21:16 -31.93791 148.84421 36022 ft 535 kts 348°
2026-04-23 21:17 -31.90142 148.83559 36192 ft 534 kts 348°
2026-04-23 21:17 -31.86498 148.82723 36355 ft 534 kts 348°
2026-04-23 21:17 -31.82845 148.81883 36464 ft 535 kts 348°
2026-04-23 21:17 -31.79182 148.81026 36467 ft 539 kts 348°
2026-04-23 21:18 -31.71796 148.79262 36461 ft 545 kts 348°
2026-04-23 21:18 -31.64330 148.77456 36461 ft 550 kts 348°
2026-04-23 21:19 -31.56814 148.75638 36450 ft 552 kts 348°
2026-04-23 21:19 -31.49259 148.73816 36455 ft 556 kts 348°
2026-04-23 21:20 -31.41711 148.72000 36455 ft 557 kts 348°
2026-04-23 21:20 -31.34103 148.70172 36454 ft 558 kts 347°
2026-04-23 21:21 -31.26483 148.68345 36444 ft 558 kts 347°
2026-04-23 21:21 -31.18871 148.66522 36443 ft 558 kts 347°
2026-04-23 21:22 -31.11261 148.64704 36444 ft 558 kts 347°
2026-04-23 21:22 -31.03653 148.62894 36441 ft 558 kts 347°
2026-04-23 21:23 -30.96043 148.61077 36439 ft 558 kts 347°
2026-04-23 21:23 -30.88424 148.59262 36438 ft 558 kts 347°
2026-04-23 21:24 -30.80864 148.57466 36438 ft 558 kts 347°
2026-04-23 21:24 -30.73245 148.55660 36436 ft 558 kts 347°
2026-04-23 21:25 -30.65629 148.53857 36441 ft 558 kts 347°
2026-04-23 21:25 -30.58012 148.52057 36439 ft 558 kts 347°
2026-04-23 21:26 -30.50402 148.50261 36438 ft 558 kts 347°
2026-04-23 21:26 -30.42788 148.48467 36436 ft 558 kts 347°
2026-04-23 21:27 -30.35157 148.46676 36437 ft 559 kts 347°
2026-04-23 21:27 -30.27570 148.44893 36433 ft 561 kts 347°
2026-04-23 21:28 -30.19917 148.43096 36433 ft 562 kts 347°
2026-04-23 21:28 -30.12250 148.41300 36427 ft 562 kts 347°
2026-04-23 21:29 -30.04578 148.39508 36427 ft 562 kts 347°
2026-04-23 21:29 -29.96891 148.37714 36427 ft 562 kts 347°
2026-04-23 21:30 -29.89228 148.35929 36430 ft 562 kts 347°
2026-04-23 21:30 -29.81608 148.34156 36429 ft 562 kts 347°
2026-04-23 21:31 -29.73941 148.32376 36427 ft 562 kts 347°
2026-04-23 21:31 -29.66276 148.30598 36428 ft 562 kts 347°
2026-04-23 21:32 -29.58612 148.28823 36426 ft 562 kts 347°
2026-04-23 21:32 -29.50940 148.27050 36419 ft 561 kts 347°
2026-04-23 21:33 -29.43280 148.25282 36423 ft 561 kts 347°
2026-04-23 21:33 -29.35623 148.23517 36423 ft 561 kts 347°
2026-04-23 21:34 -29.27966 148.21755 36418 ft 561 kts 347°
2026-04-23 21:34 -29.20305 148.19995 36391 ft 561 kts 347°
2026-04-23 21:35 -29.12641 148.18240 36421 ft 562 kts 347°
2026-04-23 21:35 -29.04959 148.16486 36418 ft 563 kts 347°
2026-04-23 21:36 -28.93435 148.13848 36406 ft 563 kts 346°
2026-04-23 21:37 -28.85810 148.12105 36410 ft 563 kts 346°
2026-04-23 21:37 -28.78126 148.10353 36407 ft 563 kts 346°
2026-04-23 21:38 -28.70451 148.08608 36409 ft 562 kts 346°
2026-04-23 21:38 -28.62780 148.06866 36410 ft 562 kts 346°
2026-04-23 21:39 -28.55107 148.05126 36403 ft 562 kts 346°
2026-04-23 21:39 -28.47438 148.03389 36400 ft 562 kts 346°
2026-04-23 21:40 -28.39777 148.01657 36399 ft 561 kts 346°
2026-04-23 21:40 -28.32115 147.99927 36401 ft 561 kts 346°
2026-04-23 21:41 -28.24503 147.98211 36401 ft 561 kts 346°
2026-04-23 21:41 -28.16844 147.96487 36400 ft 560 kts 346°
2026-04-23 21:42 -28.09194 147.94767 36397 ft 560 kts 346°
2026-04-23 21:42 -28.01535 147.93048 36394 ft 560 kts 346°
2026-04-23 21:43 -27.93876 147.91333 36390 ft 560 kts 346°
2026-04-23 21:43 -27.86237 147.89622 36394 ft 560 kts 346°
2026-04-23 21:44 -27.78639 147.87923 36389 ft 560 kts 346°
2026-04-23 21:44 -27.70989 147.86215 36395 ft 560 kts 346°
2026-04-23 21:45 -27.63349 147.84513 36387 ft 559 kts 345°
2026-04-23 21:45 -27.55720 147.82815 36396 ft 559 kts 346°
2026-04-23 21:46 -27.48090 147.81120 36395 ft 559 kts 346°
2026-04-23 21:46 -27.40460 147.79426 36385 ft 558 kts 345°
2026-04-23 21:47 -27.34123 147.78022 36386 ft 558 kts 345°
2026-04-23 21:47 -27.26503 147.76335 36387 ft 557 kts 345°
2026-04-23 21:48 -27.18894 147.74653 36388 ft 557 kts 345°
2026-04-23 21:48 -27.11287 147.72975 36385 ft 557 kts 345°
2026-04-23 21:49 -27.03687 147.71300 36384 ft 556 kts 345°
2026-04-23 21:49 -26.96132 147.69636 36384 ft 556 kts 345°
2026-04-23 21:50 -26.88542 147.67967 36385 ft 556 kts 345°
2026-04-23 21:50 -26.80954 147.66302 36383 ft 555 kts 345°
2026-04-23 21:51 -26.73375 147.64641 36378 ft 555 kts 345°
2026-04-23 21:51 -26.65797 147.62982 36384 ft 555 kts 345°
2026-04-23 21:52 -26.58219 147.61324 36381 ft 555 kts 345°
2026-04-23 21:52 -26.50633 147.59668 36379 ft 555 kts 345°
2026-04-23 21:53 -26.43043 147.58014 36378 ft 555 kts 345°
2026-04-23 21:53 -26.35461 147.56363 36378 ft 555 kts 345°
2026-04-23 21:54 -26.27883 147.54715 36378 ft 554 kts 345°
2026-04-23 21:54 -26.20320 147.53073 36373 ft 553 kts 345°
2026-04-23 21:55 -26.12784 147.51438 36374 ft 553 kts 345°
2026-04-23 21:55 -26.05220 147.49800 36366 ft 553 kts 344°
2026-04-23 21:56 -25.97665 147.48165 36373 ft 553 kts 344°
2026-04-23 21:56 -25.90112 147.46534 36372 ft 553 kts 344°
2026-04-23 21:57 -25.82558 147.44904 36376 ft 553 kts 344°
2026-04-23 21:57 -25.74997 147.43275 36369 ft 552 kts 344°
2026-04-23 21:58 -25.67502 147.41663 36370 ft 552 kts 344°
2026-04-23 21:58 -25.59967 147.40043 36371 ft 551 kts 344°
2026-04-23 21:59 -25.52424 147.38424 36366 ft 552 kts 344°
2026-04-23 21:59 -25.44879 147.36810 36361 ft 551 kts 344°
2026-04-23 22:00 -25.33604 147.34395 36364 ft 552 kts 344°
2026-04-23 22:00 -25.26058 147.32788 36359 ft 553 kts 345°
2026-04-23 22:01 -25.18340 147.32043 36357 ft 558 kts 353°
2026-04-23 22:01 -25.10559 147.31692 36355 ft 560 kts 353°
2026-04-23 22:02 -25.02766 147.31406 36356 ft 559 kts 353°
2026-04-23 22:02 -24.94987 147.31111 36345 ft 559 kts 353°
2026-04-23 22:03 -24.87220 147.30801 36346 ft 558 kts 353°
2026-04-23 22:03 -24.79460 147.30486 36346 ft 558 kts 353°
2026-04-23 22:04 -24.71750 147.30174 36345 ft 558 kts 353°
2026-04-23 22:04 -24.63996 147.29860 36347 ft 557 kts 353°
2026-04-23 22:05 -24.56233 147.29545 36344 ft 557 kts 353°
2026-04-23 22:05 -24.48465 147.29232 36344 ft 557 kts 353°
2026-04-23 22:06 -24.40760 147.28922 36338 ft 557 kts 353°
2026-04-23 22:06 -24.33005 147.28611 36341 ft 558 kts 353°
2026-04-23 22:07 -24.25251 147.28300 36335 ft 558 kts 353°
2026-04-23 22:07 -24.17492 147.27988 36336 ft 558 kts 353°
2026-04-23 22:08 -24.09738 147.27679 36334 ft 558 kts 353°
2026-04-23 22:08 -24.01979 147.27368 36340 ft 558 kts 353°
2026-04-23 22:09 -23.94216 147.27058 36329 ft 558 kts 353°
2026-04-23 22:09 -23.86455 147.26749 36329 ft 558 kts 353°
2026-04-23 22:10 -23.78751 147.26442 36329 ft 558 kts 353°
2026-04-23 22:10 -23.70994 147.26135 36322 ft 558 kts 353°
2026-04-23 22:11 -23.63235 147.25827 36336 ft 558 kts 353°
2026-04-23 22:11 -23.55462 147.25517 36322 ft 558 kts 352°
2026-04-23 22:12 -23.47700 147.25210 36321 ft 558 kts 352°
2026-04-23 22:12 -23.39944 147.24902 36313 ft 558 kts 352°
2026-04-23 22:13 -23.32197 147.24597 36308 ft 558 kts 352°
2026-04-23 22:13 -23.24428 147.24289 36311 ft 558 kts 352°
2026-04-23 22:14 -23.16654 147.23982 36308 ft 559 kts 352°
2026-04-23 22:14 -23.08882 147.23675 36308 ft 559 kts 352°
2026-04-23 22:15 -23.01144 147.23371 36308 ft 559 kts 352°
2026-04-23 22:15 -22.93358 147.23064 36306 ft 560 kts 352°
2026-04-23 22:16 -22.85565 147.22758 36303 ft 560 kts 352°
2026-04-23 22:16 -22.77768 147.22453 36296 ft 560 kts 352°
2026-04-23 22:17 -22.69959 147.22147 36301 ft 561 kts 352°
2026-04-23 22:17 -22.62145 147.21841 36295 ft 562 kts 352°
2026-04-23 22:18 -22.54374 147.21537 36295 ft 562 kts 352°
2026-04-23 22:18 -22.46550 147.21232 36294 ft 563 kts 352°
2026-04-23 22:19 -22.38709 147.20926 36290 ft 564 kts 352°
2026-04-23 22:19 -22.30852 147.20620 36289 ft 565 kts 352°
2026-04-23 22:20 -22.22981 147.20319 36269 ft 565 kts 352°
2026-04-23 22:20 -22.15167 147.20014 36285 ft 566 kts 352°
2026-04-23 22:21 -22.07286 147.19704 36279 ft 566 kts 352°
2026-04-23 22:21 -21.99401 147.19397 36278 ft 567 kts 352°
2026-04-23 22:22 -21.91515 147.19092 36274 ft 568 kts 351°
2026-04-23 22:22 -21.83607 147.18785 36274 ft 569 kts 351°
2026-04-23 22:23 -21.75691 147.18479 36276 ft 569 kts 351°
2026-04-23 22:23 -21.67809 147.18176 36249 ft 570 kts 351°
2026-04-23 22:24 -21.59878 147.17870 36271 ft 571 kts 351°
2026-04-23 22:24 -21.51925 147.17563 36266 ft 572 kts 351°
2026-04-23 22:25 -21.43958 147.17257 36268 ft 572 kts 351°
2026-04-23 22:25 -21.35999 147.16952 36261 ft 572 kts 351°
2026-04-23 22:26 -21.28037 147.16647 36259 ft 572 kts 351°
2026-04-23 22:26 -21.20082 147.16342 36262 ft 572 kts 351°
2026-04-23 22:27 -21.12187 147.16039 36258 ft 572 kts 351°
2026-04-23 22:27 -21.04223 147.15734 36255 ft 572 kts 351°
2026-04-23 22:28 -20.96277 147.15430 36257 ft 572 kts 351°
2026-04-23 22:28 -20.88319 147.15127 36252 ft 572 kts 351°
2026-04-23 22:29 -20.80362 147.14823 36246 ft 572 kts 351°
2026-04-23 22:29 -20.72407 147.14477 36237 ft 569 kts 347°
2026-04-23 22:30 -20.64736 147.12931 36251 ft 558 kts 338°
2026-04-23 22:30 -20.57211 147.10954 36211 ft 557 kts 337°
2026-04-23 22:31 -20.49701 147.08910 36239 ft 558 kts 336°
2026-04-23 22:31 -20.42160 147.06867 36238 ft 560 kts 336°
2026-04-23 22:32 -20.34595 147.04837 36236 ft 561 kts 336°
2026-04-23 22:32 -20.27022 147.02818 36236 ft 561 kts 337°
2026-04-23 22:33 -20.19484 147.00815 36231 ft 561 kts 337°
2026-04-23 22:33 -20.11902 146.98796 36229 ft 562 kts 336°
2026-04-23 22:34 -20.04321 146.96777 36230 ft 561 kts 336°
2026-04-23 22:34 -19.96750 146.94765 36226 ft 561 kts 337°
2026-04-23 22:35 -19.90449 146.93095 36223 ft 562 kts 336°
2026-04-23 22:35 -19.82870 146.91053 36226 ft 559 kts 333°
2026-04-23 22:36 -19.79269 146.89635 36237 ft 546 kts 325°
2026-04-23 22:36 -19.75824 146.87959 36223 ft 544 kts 324°
2026-04-23 22:36 -19.69042 146.84437 36217 ft 542 kts 323°
2026-04-23 22:37 -19.62294 146.80849 36209 ft 542 kts 322°
2026-04-23 22:37 -19.55541 146.77276 36203 ft 543 kts 322°
2026-04-23 22:38 -19.48766 146.73714 36208 ft 543 kts 323°
2026-04-23 22:38 -19.42019 146.70178 36185 ft 544 kts 323°
2026-04-23 22:39 -19.35236 146.66626 36178 ft 544 kts 323°
2026-04-23 22:39 -19.28451 146.63077 36185 ft 543 kts 323°
2026-04-23 22:40 -19.21675 146.59535 36191 ft 542 kts 323°
2026-04-23 22:41 -19.11523 146.54232 36195 ft 542 kts 323°
2026-04-23 22:41 -19.04802 146.50726 36205 ft 542 kts 323°
2026-04-23 22:42 -18.98037 146.47201 36193 ft 541 kts 323°
2026-04-23 22:42 -18.91285 146.43687 36202 ft 540 kts 323°
2026-04-23 22:43 -18.84544 146.40179 36193 ft 540 kts 323°
2026-04-23 22:43 -18.77804 146.36675 36194 ft 539 kts 323°
2026-04-23 22:44 -18.71073 146.33179 36195 ft 539 kts 323°
2026-04-23 22:44 -18.64356 146.29696 36180 ft 535 kts 324°
2026-04-23 22:45 -18.57707 146.26255 36195 ft 531 kts 323°
2026-04-23 22:45 -18.51128 146.22845 36193 ft 530 kts 323°
2026-04-23 22:46 -18.44516 146.19421 36192 ft 530 kts 323°
2026-04-23 22:46 -18.37900 146.15998 36192 ft 530 kts 324°
2026-04-23 22:47 -18.31295 146.12587 36191 ft 528 kts 324°
2026-04-23 22:47 -18.24703 146.09185 36194 ft 527 kts 324°
2026-04-23 22:48 -18.18115 146.05788 36189 ft 527 kts 324°
2026-04-23 22:48 -18.11531 146.02393 36194 ft 526 kts 324°
2026-04-23 22:49 -18.04951 145.99006 36192 ft 525 kts 324°
2026-04-23 22:49 -17.98384 145.95629 36191 ft 525 kts 324°
2026-04-23 22:50 -17.91816 145.92252 36194 ft 525 kts 324°
2026-04-23 22:50 -17.85247 145.88880 36192 ft 525 kts 324°
2026-04-23 22:51 -17.78681 145.85511 36199 ft 525 kts 324°
2026-04-23 22:51 -17.72162 145.82163 36184 ft 525 kts 324°
2026-04-23 22:51 -17.68896 145.80491 36379 ft 518 kts 325°
2026-04-23 22:52 -17.65683 145.78859 36961 ft 508 kts 325°
2026-04-23 22:52 -17.62523 145.77253 37412 ft 501 kts 325°
2026-04-23 22:52 -17.59405 145.75665 37725 ft 497 kts 325°
2026-04-23 22:52 -17.56301 145.74079 37919 ft 496 kts 325°
2026-04-23 22:53 -17.53202 145.72494 38057 ft 496 kts 325°
2026-04-23 22:53 -17.50104 145.70907 38179 ft 496 kts 325°
2026-04-23 22:53 -17.47000 145.69316 38196 ft 498 kts 325°
2026-04-23 22:54 -17.40743 145.66117 38187 ft 502 kts 325°
2026-04-23 22:54 -17.34433 145.62898 38190 ft 506 kts 325°
2026-04-23 22:55 -17.28081 145.59665 38190 ft 509 kts 326°
2026-04-23 22:55 -17.21745 145.56444 38182 ft 510 kts 326°
2026-04-23 22:56 -17.15357 145.53199 38177 ft 511 kts 326°
2026-04-23 22:56 -17.08953 145.49946 38152 ft 512 kts 326°
2026-04-23 22:57 -17.02548 145.46698 38157 ft 511 kts 326°
2026-04-23 22:57 -16.96135 145.43455 38150 ft 513 kts 327°
2026-04-23 22:58 -16.89201 145.41278 38155 ft 533 kts 346°
2026-04-23 22:58 -16.81737 145.40774 38157 ft 540 kts 351°
2026-04-23 22:59 -16.74219 145.40599 38157 ft 540 kts 352°
2026-04-23 22:59 -16.66715 145.40444 38154 ft 539 kts 352°
2026-04-23 23:00 -16.59221 145.40250 38152 ft 538 kts 352°
2026-04-23 23:00 -16.51733 145.40035 38152 ft 538 kts 352°
2026-04-23 23:01 -16.44306 145.39817 38151 ft 537 kts 352°
2026-04-23 23:01 -16.36828 145.39601 38145 ft 537 kts 352°
2026-04-23 23:02 -16.29356 145.39387 38143 ft 537 kts 352°
2026-04-23 23:02 -16.21881 145.39171 38132 ft 537 kts 352°
2026-04-23 23:03 -16.14417 145.38955 38135 ft 536 kts 352°
2026-04-23 23:03 -16.06964 145.38741 38134 ft 536 kts 352°
2026-04-23 23:04 -15.99499 145.38526 38127 ft 536 kts 352°
2026-04-23 23:04 -15.92088 145.38314 38096 ft 536 kts 353°
2026-04-23 23:05 -15.84631 145.38101 38115 ft 535 kts 353°
2026-04-23 23:05 -15.77180 145.37887 38109 ft 535 kts 353°
2026-04-23 23:06 -15.69732 145.37673 38112 ft 535 kts 353°
2026-04-23 23:06 -15.62288 145.37460 38112 ft 535 kts 353°
2026-04-23 23:07 -15.54848 145.37247 38104 ft 534 kts 353°
2026-04-23 23:07 -15.47459 145.37036 38099 ft 534 kts 353°
2026-04-23 23:08 -15.40024 145.36824 38101 ft 534 kts 353°
2026-04-23 23:08 -15.32594 145.36612 38077 ft 534 kts 353°
2026-04-23 23:09 -15.25168 145.36400 38096 ft 533 kts 353°
2026-04-23 23:09 -15.17754 145.36189 38092 ft 533 kts 353°
2026-04-23 23:10 -15.10331 145.35978 38093 ft 533 kts 353°
2026-04-23 23:10 -15.02915 145.35767 38083 ft 533 kts 353°
2026-04-23 23:11 -14.95542 145.35557 38088 ft 533 kts 353°
2026-04-23 23:11 -14.88117 145.35346 38084 ft 533 kts 353°
2026-04-23 23:12 -14.80703 145.35136 38082 ft 533 kts 353°
2026-04-23 23:12 -14.73286 145.34925 38065 ft 533 kts 354°
2026-04-23 23:13 -14.65880 145.34716 38078 ft 532 kts 354°
2026-04-23 23:13 -14.58474 145.34506 38073 ft 532 kts 354°
2026-04-23 23:14 -14.51072 145.34296 38065 ft 532 kts 353°
2026-04-23 23:14 -14.43673 145.34087 38059 ft 532 kts 354°
2026-04-23 23:15 -14.36308 145.33690 38071 ft 527 kts 347°
2026-04-23 23:15 -14.29101 145.32640 38066 ft 526 kts 346°
2026-04-23 23:16 -14.21878 145.31471 38065 ft 525 kts 346°
2026-04-23 23:16 -14.14648 145.30289 38053 ft 525 kts 346°
2026-04-23 23:17 -14.07427 145.29120 38060 ft 526 kts 346°
2026-04-23 23:17 -14.00190 145.27958 38056 ft 526 kts 346°
2026-04-23 23:18 -13.92959 145.26799 38058 ft 526 kts 346°
2026-04-23 23:18 -13.85723 145.25638 38054 ft 526 kts 347°
2026-04-23 23:19 -13.78531 145.24486 38049 ft 527 kts 347°
2026-04-23 23:19 -13.71287 145.23327 38051 ft 527 kts 347°
2026-04-23 23:20 -13.64036 145.22167 38048 ft 527 kts 347°
2026-04-23 23:20 -13.56781 145.21007 38046 ft 527 kts 347°
2026-04-23 23:21 -13.49529 145.19847 38048 ft 528 kts 347°
2026-04-23 23:21 -13.42272 145.18688 38044 ft 528 kts 347°
2026-04-23 23:22 -13.35008 145.17529 38038 ft 528 kts 347°
2026-04-23 23:22 -13.27739 145.16369 38042 ft 528 kts 347°
2026-04-23 23:23 -13.20475 145.15211 38036 ft 528 kts 347°
2026-04-23 23:23 -13.13214 145.14054 38040 ft 528 kts 347°
2026-04-23 23:24 -13.07173 145.13092 38037 ft 528 kts 347°
2026-04-23 23:24 -12.99902 145.11935 38032 ft 529 kts 347°
2026-04-23 23:25 -12.91448 145.10590 38025 ft 529 kts 347°
2026-04-23 23:25 -12.85388 145.09626 38028 ft 529 kts 347°
2026-04-23 23:26 -12.78111 145.08470 38027 ft 529 kts 347°
2026-04-23 23:26 -12.70830 145.07314 38026 ft 529 kts 347°
2026-04-23 23:27 -12.63545 145.06158 38020 ft 529 kts 347°
2026-04-23 23:27 -12.56263 145.05003 38019 ft 529 kts 348°
2026-04-23 23:28 -12.48978 145.03848 38022 ft 530 kts 348°
2026-04-23 23:28 -12.41733 145.02700 38023 ft 530 kts 348°
2026-04-23 23:29 -12.34451 145.01547 38023 ft 530 kts 348°
2026-04-23 23:29 -12.27168 145.00394 38015 ft 529 kts 348°
2026-04-23 23:30 -12.19877 144.99241 38016 ft 530 kts 348°
2026-04-23 23:30 -12.12595 144.98091 38019 ft 530 kts 348°
2026-04-23 23:31 -12.05315 144.96941 38016 ft 530 kts 348°
2026-04-23 23:31 -11.98021 144.95792 38015 ft 530 kts 348°
2026-04-23 23:32 -11.90739 144.94642 38012 ft 530 kts 348°
2026-04-23 23:32 -11.83454 144.93487 38012 ft 530 kts 348°
2026-04-23 23:33 -11.76220 144.92342 38008 ft 530 kts 348°
2026-04-23 23:33 -11.68930 144.91190 38006 ft 530 kts 348°
2026-04-23 23:34 -11.61652 144.90042 38005 ft 529 kts 348°
2026-04-23 23:34 -11.54366 144.88893 38003 ft 529 kts 348°
2026-04-23 23:35 -11.47092 144.87746 38005 ft 529 kts 348°
2026-04-23 23:35 -11.39807 144.86598 37988 ft 529 kts 349°
2026-04-23 23:36 -11.32531 144.85452 37997 ft 529 kts 349°
2026-04-23 23:36 -11.25255 144.84307 37994 ft 528 kts 349°
2026-04-23 23:37 -11.17989 144.83164 37994 ft 528 kts 349°
2026-04-23 23:37 -11.10724 144.82021 37996 ft 528 kts 348°
2026-04-23 23:38 -11.03501 144.80886 37991 ft 528 kts 349°
2026-04-23 23:38 -10.96216 144.79742 37988 ft 529 kts 349°
2026-04-23 23:39 -10.88950 144.78601 37985 ft 529 kts 349°
2026-04-23 23:39 -10.81672 144.77458 37985 ft 528 kts 349°
2026-04-23 23:40 -10.74396 144.76316 37983 ft 528 kts 349°
2026-04-23 23:40 -10.67123 144.75177 37982 ft 528 kts 349°
2026-04-23 23:41 -10.59900 144.74046 37979 ft 528 kts 349°
2026-04-23 23:41 -10.52642 144.72909 37978 ft 528 kts 349°
2026-04-23 23:42 -10.45382 144.71773 37978 ft 528 kts 349°
2026-04-23 23:42 -10.38125 144.70637 37979 ft 527 kts 349°
2026-04-23 23:43 -10.30884 144.69502 37980 ft 527 kts 349°
2026-04-23 23:43 -10.23677 144.68374 37976 ft 526 kts 349°
2026-04-23 23:44 -10.16425 144.67242 37972 ft 526 kts 349°
2026-04-23 23:44 -10.09190 144.66114 37973 ft 526 kts 350°
2026-04-23 23:45 -10.01957 144.64985 37975 ft 525 kts 349°
2026-04-23 23:45 -9.94733 144.63858 37969 ft 526 kts 349°
2026-04-23 23:46 -9.87504 144.62731 37969 ft 526 kts 349°
2026-04-23 23:46 -9.80284 144.61604 37968 ft 525 kts 350°
2026-04-23 23:47 -9.73069 144.60479 37970 ft 524 kts 349°
2026-04-23 23:47 -9.65900 144.59359 37969 ft 524 kts 350°
2026-04-23 23:48 -9.58691 144.58237 37965 ft 524 kts 350°
2026-04-23 23:48 -9.51484 144.57117 37968 ft 524 kts 350°
2026-04-23 23:49 -9.40667 144.55436 37969 ft 524 kts 350°
2026-04-23 23:49 -9.33453 144.54314 37963 ft 524 kts 349°
2026-04-23 23:50 -9.26247 144.53194 37962 ft 524 kts 350°
2026-04-23 23:50 -9.19090 144.52082 37964 ft 522 kts 351°
2026-04-23 23:51 -9.11907 144.50967 37963 ft 521 kts 351°
2026-04-23 23:51 -9.04735 144.49853 37963 ft 521 kts 351°
2026-04-23 23:52 -8.97579 144.48740 37961 ft 519 kts 351°
2026-04-23 23:52 -8.90437 144.47634 37961 ft 519 kts 351°
2026-04-23 23:53 -8.83300 144.46529 37958 ft 519 kts 351°
2026-04-23 23:53 -8.76163 144.45424 37961 ft 519 kts 351°
2026-04-23 23:54 -8.69071 144.44325 37962 ft 519 kts 350°
2026-04-23 23:54 -8.61938 144.43220 37958 ft 519 kts 351°
2026-04-23 23:55 -8.54784 144.42112 37956 ft 519 kts 351°
2026-04-23 23:55 -8.47638 144.41006 37959 ft 519 kts 351°
2026-04-23 23:56 -8.40501 144.39903 37960 ft 519 kts 351°
2026-04-23 23:56 -8.33373 144.38801 37961 ft 519 kts 351°
2026-04-23 23:57 -8.26219 144.37695 37960 ft 520 kts 351°
2026-04-23 23:57 -8.19101 144.36594 37961 ft 521 kts 351°
2026-04-23 23:58 -8.11928 144.35487 37958 ft 522 kts 351°
2026-04-23 23:58 -8.04747 144.34378 37961 ft 522 kts 351°
2026-04-23 23:59 -7.97567 144.33270 37959 ft 522 kts 351°
2026-04-23 23:59 -7.90388 144.32162 37960 ft 522 kts 351°
2026-04-24 00:00 -7.83206 144.31054 37960 ft 522 kts 351°
2026-04-24 00:00 -7.76077 144.29955 37962 ft 522 kts 351°
2026-04-24 00:01 -7.68899 144.28849 37962 ft 522 kts 351°
2026-04-24 00:01 -7.61720 144.27743 37960 ft 522 kts 351°
2026-04-24 00:02 -7.54543 144.26638 37959 ft 522 kts 351°
2026-04-24 00:02 -7.47372 144.25534 37962 ft 521 kts 351°
2026-04-24 00:03 -7.40155 144.24770 37962 ft 521 kts 357°
2026-04-24 00:03 -7.32929 144.24466 37963 ft 518 kts 358°
2026-04-24 00:04 -7.25735 144.24236 37972 ft 516 kts 358°
2026-04-24 00:04 -7.18556 144.24009 37968 ft 516 kts 358°
2026-04-24 00:05 -7.11381 144.23772 37980 ft 516 kts 358°
2026-04-24 00:05 -7.04205 144.23530 37982 ft 516 kts 358°
2026-04-24 00:06 -6.97022 144.23287 37995 ft 516 kts 358°
2026-04-24 00:06 -6.89854 144.23044 38018 ft 516 kts 358°
2026-04-24 00:07 -6.82673 144.22802 38018 ft 516 kts 358°
2026-04-24 00:07 -6.75530 144.22561 38034 ft 517 kts 358°
2026-04-24 00:08 -6.68337 144.22319 38034 ft 517 kts 358°
2026-04-24 00:08 -6.61137 144.22076 38051 ft 518 kts 358°
2026-04-24 00:09 -6.53937 144.21834 38066 ft 518 kts 358°
2026-04-24 00:09 -6.46731 144.21591 38066 ft 518 kts 359°
2026-04-24 00:10 -6.39519 144.21348 38079 ft 519 kts 359°
2026-04-24 00:10 -6.32286 144.21105 38078 ft 520 kts 359°
2026-04-24 00:11 -6.25097 144.20863 38090 ft 520 kts 359°
2026-04-24 00:11 -6.17863 144.20620 38088 ft 520 kts 359°
2026-04-24 00:12 -6.10616 144.20375 38099 ft 522 kts 359°
2026-04-24 00:12 -6.03348 144.20132 38098 ft 522 kts 359°
2026-04-24 00:13 -5.96075 144.19888 38101 ft 523 kts 359°
2026-04-24 00:13 -5.88842 144.19645 38104 ft 523 kts 359°
2026-04-24 00:14 -5.81564 144.19400 38106 ft 523 kts 359°
2026-04-24 00:14 -5.74287 144.19156 38097 ft 523 kts 359°
2026-04-24 00:15 -5.68183 144.18951 38099 ft 523 kts 359°
2026-04-24 00:15 -5.60952 144.18708 38088 ft 523 kts 359°
2026-04-24 00:16 -5.53667 144.18464 38069 ft 523 kts 359°
2026-04-24 00:16 -5.46375 144.18219 38070 ft 524 kts 359°
2026-04-24 00:17 -5.39078 144.17975 38059 ft 524 kts 359°
2026-04-24 00:17 -5.31786 144.17730 38060 ft 524 kts 359°
2026-04-24 00:18 -5.24484 144.17485 38039 ft 525 kts 359°
2026-04-24 00:18 -5.17184 144.17240 38033 ft 525 kts 359°
2026-04-24 00:19 -5.09871 144.16995 38028 ft 526 kts 359°
2026-04-24 00:19 -5.02598 144.16752 38013 ft 526 kts 359°
2026-04-24 00:20 -4.95270 144.16508 38011 ft 526 kts 359°
2026-04-24 00:20 -4.87949 144.16263 37998 ft 526 kts 359°
2026-04-24 00:21 -4.80644 144.16017 37981 ft 525 kts 359°
2026-04-24 00:21 -4.73374 144.15773 37983 ft 525 kts 359°
2026-04-24 00:22 -4.66058 144.15528 37966 ft 525 kts 359°
2026-04-24 00:22 -4.58746 144.15283 37967 ft 526 kts 359°
2026-04-24 00:23 -4.51427 144.15038 37958 ft 526 kts 359°
2026-04-24 00:23 -4.44117 144.14794 37959 ft 526 kts 359°
2026-04-24 00:24 -4.36793 144.14549 37958 ft 526 kts 359°
2026-04-24 00:24 -4.29478 144.14304 37958 ft 526 kts 359°
2026-04-24 00:25 -4.22213 144.14061 37958 ft 525 kts 359°
2026-04-24 00:25 -4.14906 144.13817 37960 ft 525 kts 359°
2026-04-24 00:26 -4.07604 144.13573 37961 ft 525 kts 359°
2026-04-24 00:26 -4.00302 144.13329 37959 ft 524 kts 359°
2026-04-24 00:27 -3.93006 144.13085 37958 ft 524 kts 359°
2026-04-24 00:27 -3.85718 144.12842 37958 ft 524 kts 359°
2026-04-24 00:28 -3.78484 144.12601 37952 ft 524 kts 359°
2026-04-24 00:28 -3.71199 144.12357 37955 ft 524 kts 359°
2026-04-24 00:29 -3.63919 144.12115 37955 ft 522 kts 359°
2026-04-24 00:29 -3.56653 144.11872 37953 ft 522 kts 359°
2026-04-24 00:30 -3.49391 144.11629 37953 ft 522 kts 359°
2026-04-24 00:30 -3.42133 144.11387 37952 ft 521 kts 359°
2026-04-24 00:31 -3.34919 144.11148 37954 ft 522 kts 359°
2026-04-24 00:31 -3.27655 144.10905 37953 ft 522 kts 359°
2026-04-24 00:32 -3.20387 144.10662 37948 ft 522 kts 359°
2026-04-24 00:32 -3.13128 144.10419 37948 ft 522 kts 359°
2026-04-24 00:33 -3.05912 144.10179 37951 ft 522 kts 359°
2026-04-24 00:33 -2.98636 144.09937 37949 ft 523 kts 359°
2026-04-24 00:34 -2.91348 144.09694 37946 ft 524 kts 359°
2026-04-24 00:34 -2.84056 144.09450 37944 ft 524 kts 359°
2026-04-24 00:35 -2.76769 144.09207 37947 ft 524 kts 359°
2026-04-24 00:35 -2.69473 144.08964 37945 ft 524 kts 359°
2026-04-24 00:36 -2.62185 144.08721 37941 ft 524 kts 359°
2026-04-24 00:36 -2.54895 144.08479 37946 ft 524 kts 359°
2026-04-24 00:37 -2.47598 144.08236 37946 ft 524 kts 359°
2026-04-24 00:37 -2.40343 144.07994 37950 ft 525 kts 359°
2026-04-24 00:38 -2.33035 144.07751 37949 ft 525 kts 359°
2026-04-24 00:38 -2.25734 144.07508 37946 ft 525 kts 359°
2026-04-24 00:39 -2.18423 144.07265 37943 ft 525 kts 359°
2026-04-24 00:39 -2.11111 144.07021 37944 ft 525 kts 359°
2026-04-24 00:40 -2.03823 144.06681 37943 ft 524 kts 359°
2026-04-24 00:40 -1.96529 144.06470 37940 ft 524 kts 360°
2026-04-24 00:41 -1.89279 144.06278 37942 ft 525 kts 359°
2026-04-24 00:41 -1.81974 144.06054 37941 ft 525 kts 359°
2026-04-24 00:42 -1.74675 144.05812 37941 ft 525 kts 359°
2026-04-24 00:42 -1.67369 144.05567 37941 ft 525 kts 359°
2026-04-24 00:43 -1.60074 144.05323 37942 ft 524 kts 359°
2026-04-24 00:43 -1.52779 144.05080 37942 ft 524 kts 359°
2026-04-24 00:44 -1.45478 144.04837 37941 ft 525 kts 359°
2026-04-24 00:44 -1.38224 144.04596 37942 ft 525 kts 359°
2026-04-24 00:45 -1.30924 144.04353 37939 ft 525 kts 359°
2026-04-24 00:45 -1.23620 144.04110 37943 ft 525 kts 359°
2026-04-24 00:46 -1.16320 144.03867 37938 ft 525 kts 359°
2026-04-24 00:46 -1.09014 144.03624 37939 ft 526 kts 359°
2026-04-24 00:47 -1.01688 144.03381 37938 ft 526 kts 359°
2026-04-24 00:47 -0.94376 144.03137 37939 ft 526 kts 359°
2026-04-24 00:48 -0.87062 144.02894 37938 ft 526 kts 359°
2026-04-24 00:48 -0.79743 144.02651 37935 ft 526 kts 359°
2026-04-24 00:49 -0.72415 144.02407 37933 ft 526 kts 359°
2026-04-24 00:49 -0.65140 144.02165 37934 ft 526 kts 359°
2026-04-24 00:50 -0.57820 144.01921 37932 ft 526 kts 360°
2026-04-24 00:50 -0.50492 144.01678 37934 ft 526 kts 360°
2026-04-24 00:51 -0.43169 144.01435 37932 ft 526 kts 360°
2026-04-24 00:51 -0.35842 144.01192 37933 ft 526 kts 360°
2026-04-24 00:52 -0.28509 144.00948 37933 ft 525 kts 360°
2026-04-24 00:52 -0.21223 144.00706 37928 ft 523 kts 360°
2026-04-24 00:53 -0.13963 144.00465 37927 ft 522 kts 360°
2026-04-24 00:53 -0.06738 144.00225 37928 ft 522 kts 360°
2026-04-24 00:54 0.00526 143.99984 37932 ft 522 kts 360°
2026-04-24 00:54 0.07765 143.99540 37927 ft 521 kts 356°
2026-04-24 00:55 0.14979 143.98915 37924 ft 520 kts 356°
2026-04-24 00:55 0.22192 143.98312 37925 ft 520 kts 356°
2026-04-24 00:56 0.29401 143.97748 37928 ft 520 kts 357°
2026-04-24 00:56 0.36571 143.97201 37928 ft 520 kts 357°
2026-04-24 00:57 0.43788 143.96651 37925 ft 520 kts 357°
2026-04-24 00:58 0.54597 143.95826 37928 ft 520 kts 357°
2026-04-24 00:58 0.61810 143.95274 37924 ft 520 kts 357°
2026-04-24 00:59 0.68977 143.94726 37924 ft 519 kts 356°
2026-04-24 00:59 0.76185 143.94175 37922 ft 519 kts 356°
2026-04-24 01:00 0.83389 143.93624 37923 ft 519 kts 356°
2026-04-24 01:00 0.90593 143.93072 37928 ft 519 kts 356°
2026-04-24 01:01 0.97806 143.92521 37927 ft 519 kts 356°
2026-04-24 01:01 1.05012 143.91970 37924 ft 519 kts 356°
2026-04-24 01:02 1.12219 143.91418 37925 ft 519 kts 356°
2026-04-24 01:02 1.19424 143.90867 37925 ft 519 kts 356°
2026-04-24 01:03 1.26626 143.90316 37925 ft 519 kts 356°
2026-04-24 01:03 1.33816 143.89766 37926 ft 518 kts 356°
2026-04-24 01:04 1.39790 143.89309 37927 ft 518 kts 356°
2026-04-24 01:04 1.48144 143.88669 37924 ft 518 kts 356°
2026-04-24 01:05 1.54167 143.88209 37920 ft 518 kts 356°
2026-04-24 01:05 1.61345 143.87659 37923 ft 517 kts 356°
2026-04-24 01:06 1.68526 143.87110 37925 ft 517 kts 356°
2026-04-24 01:06 1.75702 143.86560 37924 ft 517 kts 356°
2026-04-24 01:07 1.82879 143.86011 37922 ft 517 kts 356°
2026-04-24 01:07 1.90025 143.85464 37922 ft 517 kts 356°
2026-04-24 01:08 1.97211 143.84914 37925 ft 518 kts 356°
2026-04-24 01:08 2.04405 143.84363 37923 ft 518 kts 356°
2026-04-24 01:09 2.11605 143.83812 37922 ft 518 kts 356°
2026-04-24 01:09 2.18748 143.83265 37923 ft 517 kts 355°
2026-04-24 01:10 2.25930 143.82715 37922 ft 517 kts 355°
2026-04-24 01:10 2.33108 143.82165 37922 ft 517 kts 356°
2026-04-24 01:11 2.40281 143.81615 37924 ft 517 kts 356°
2026-04-24 01:11 2.47453 143.81066 37923 ft 516 kts 355°
2026-04-24 01:12 2.54604 143.80518 37920 ft 514 kts 355°
2026-04-24 01:12 2.61739 143.79971 37922 ft 513 kts 355°
2026-04-24 01:13 2.68856 143.79426 37921 ft 513 kts 355°
2026-04-24 01:13 2.75980 143.78880 37921 ft 513 kts 355°
2026-04-24 01:14 2.83092 143.78334 37920 ft 512 kts 355°
2026-04-24 01:14 2.90148 143.77794 37920 ft 511 kts 355°
2026-04-24 01:15 2.97240 143.77250 37917 ft 511 kts 355°
2026-04-24 01:15 3.04332 143.76706 37920 ft 511 kts 355°
2026-04-24 01:16 3.11423 143.76162 37923 ft 511 kts 355°
2026-04-24 01:16 3.18513 143.75618 37922 ft 511 kts 355°
2026-04-24 01:17 3.25604 143.75074 37919 ft 511 kts 355°
2026-04-24 01:17 3.32667 143.74532 37918 ft 511 kts 355°
2026-04-24 01:18 3.39765 143.73988 37917 ft 512 kts 355°
2026-04-24 01:18 3.46875 143.73442 37919 ft 512 kts 355°
2026-04-24 01:19 3.53985 143.72896 37921 ft 512 kts 355°
2026-04-24 01:19 3.61093 143.72351 37919 ft 512 kts 355°
2026-04-24 01:20 3.68194 143.71805 37920 ft 512 kts 355°
2026-04-24 01:20 3.75256 143.71263 37919 ft 511 kts 355°
2026-04-24 01:21 3.82335 143.70719 37919 ft 510 kts 355°
2026-04-24 01:21 3.89418 143.70175 37920 ft 510 kts 355°
2026-04-24 01:22 3.96496 143.69631 37917 ft 510 kts 355°
2026-04-24 01:22 4.03580 143.69087 37919 ft 509 kts 355°
2026-04-24 01:23 4.10634 143.68545 37919 ft 509 kts 355°
2026-04-24 01:23 4.17699 143.68002 37919 ft 509 kts 355°
2026-04-24 01:24 4.24758 143.67459 37920 ft 509 kts 355°
2026-04-24 01:24 4.31818 143.66916 37920 ft 509 kts 355°
2026-04-24 01:25 4.38839 143.66376 37919 ft 509 kts 355°
2026-04-24 01:25 4.45915 143.65831 37919 ft 509 kts 355°
2026-04-24 01:26 4.52987 143.65287 37917 ft 509 kts 355°
2026-04-24 01:26 4.60053 143.64743 37916 ft 509 kts 355°
2026-04-24 01:27 4.67122 143.64200 37920 ft 509 kts 355°
2026-04-24 01:27 4.74135 143.63659 37920 ft 509 kts 355°
2026-04-24 01:28 4.81196 143.63116 37917 ft 509 kts 355°
2026-04-24 01:28 4.88255 143.62572 37917 ft 509 kts 355°
2026-04-24 01:29 4.95318 143.62028 37921 ft 509 kts 355°
2026-04-24 01:29 5.02380 143.61459 37919 ft 509 kts 353°
2026-04-24 01:30 5.09390 143.60398 37918 ft 509 kts 349°
2026-04-24 01:30 5.16369 143.59159 37919 ft 509 kts 350°
2026-04-24 01:31 5.23307 143.57994 37917 ft 508 kts 350°
2026-04-24 01:31 5.30293 143.56877 37917 ft 508 kts 350°
2026-04-24 01:32 5.37278 143.55778 37921 ft 507 kts 351°
2026-04-24 01:32 5.44256 143.54680 37917 ft 507 kts 350°
2026-04-24 01:33 5.51228 143.53579 37916 ft 507 kts 350°
2026-04-24 01:33 5.58163 143.52484 37916 ft 506 kts 350°
2026-04-24 01:34 5.65134 143.51381 37917 ft 506 kts 350°
2026-04-24 01:34 5.72093 143.50281 37917 ft 506 kts 350°
2026-04-24 01:35 5.79053 143.49180 37919 ft 506 kts 349°
2026-04-24 01:35 5.86010 143.48079 37919 ft 506 kts 350°
2026-04-24 01:36 5.92978 143.46977 37924 ft 507 kts 350°
2026-04-24 01:36 5.99905 143.45880 37919 ft 507 kts 350°
2026-04-24 01:37 6.06882 143.44776 37918 ft 507 kts 350°
2026-04-24 01:37 6.13852 143.43672 37915 ft 507 kts 350°
2026-04-24 01:38 6.20840 143.42565 37918 ft 508 kts 351°
2026-04-24 01:38 6.27832 143.41457 37920 ft 508 kts 350°
2026-04-24 01:39 6.34776 143.40356 37918 ft 508 kts 351°
2026-04-24 01:39 6.41763 143.39249 37916 ft 508 kts 350°
2026-04-24 01:40 6.48750 143.38141 37919 ft 508 kts 350°
2026-04-24 01:40 6.55741 143.37032 37919 ft 508 kts 350°
2026-04-24 01:41 6.62738 143.35922 37923 ft 508 kts 350°
2026-04-24 01:41 6.69725 143.34813 37922 ft 508 kts 350°
2026-04-24 01:42 6.76674 143.33709 37921 ft 510 kts 350°
2026-04-24 01:42 6.83683 143.32597 37923 ft 510 kts 351°
2026-04-24 01:43 6.90708 143.31481 37922 ft 510 kts 350°
2026-04-24 01:43 6.97737 143.30364 37922 ft 510 kts 351°
2026-04-24 01:44 7.04720 143.29254 37919 ft 511 kts 351°
2026-04-24 01:44 7.11762 143.28134 37920 ft 512 kts 351°
2026-04-24 01:45 7.18808 143.27014 37922 ft 512 kts 351°
2026-04-24 01:45 7.25853 143.25893 37921 ft 512 kts 351°
2026-04-24 01:46 7.32904 143.24771 37919 ft 513 kts 350°
2026-04-24 01:46 7.39924 143.23653 37921 ft 515 kts 351°
2026-04-24 01:47 7.47013 143.22524 37923 ft 516 kts 351°
2026-04-24 01:47 7.54117 143.21392 37922 ft 516 kts 350°
2026-04-24 01:48 7.61219 143.20261 37922 ft 517 kts 350°
2026-04-24 01:48 7.68334 143.19127 37920 ft 518 kts 350°
2026-04-24 01:49 7.75468 143.17989 37922 ft 519 kts 351°
2026-04-24 01:49 7.82597 143.16852 37921 ft 519 kts 350°
2026-04-24 01:50 7.89690 143.15719 37924 ft 518 kts 351°
2026-04-24 01:50 7.96820 143.14582 37925 ft 519 kts 350°
2026-04-24 01:51 8.03965 143.13440 37924 ft 519 kts 350°
2026-04-24 01:51 8.11108 143.12300 37926 ft 520 kts 350°
2026-04-24 01:52 8.18253 143.11158 37927 ft 520 kts 350°
2026-04-24 01:52 8.25400 143.10017 37923 ft 521 kts 349°
2026-04-24 01:53 8.32560 143.08871 37924 ft 520 kts 349°
2026-04-24 01:53 8.39711 143.07727 37926 ft 521 kts 350°
2026-04-24 01:54 8.45655 143.06775 37925 ft 520 kts 350°
2026-04-24 01:54 8.53965 143.05445 37929 ft 520 kts 349°
2026-04-24 01:55 8.61103 143.04301 37925 ft 519 kts 349°
2026-04-24 01:55 8.67081 143.03344 37925 ft 519 kts 349°
2026-04-24 01:56 8.74165 143.02208 37927 ft 518 kts 349°
2026-04-24 01:56 8.81292 143.01067 37928 ft 518 kts 348°
2026-04-24 01:57 8.88418 142.99923 37925 ft 518 kts 349°
2026-04-24 01:57 8.95537 142.98781 37925 ft 518 kts 349°
2026-04-24 01:58 9.02665 142.97635 37928 ft 518 kts 349°
2026-04-24 01:58 9.09787 142.96493 37930 ft 518 kts 348°
2026-04-24 01:59 9.16904 142.95349 37928 ft 517 kts 349°
2026-04-24 01:59 9.24011 142.94207 37927 ft 517 kts 348°
2026-04-24 02:00 9.31118 142.93064 37931 ft 517 kts 349°
2026-04-24 02:00 9.38236 142.91919 37933 ft 517 kts 348°
2026-04-24 02:01 9.45300 142.90782 37933 ft 517 kts 349°
2026-04-24 02:01 9.52409 142.89638 37930 ft 517 kts 348°
2026-04-24 02:02 9.59525 142.88492 37931 ft 517 kts 349°
2026-04-24 02:02 9.66631 142.87347 37937 ft 517 kts 349°
2026-04-24 02:03 9.77305 142.85626 37934 ft 518 kts 348°
2026-04-24 02:03 9.84429 142.84478 37933 ft 518 kts 348°
2026-04-24 02:04 9.91527 142.83409 37929 ft 519 kts 353°
2026-04-24 02:04 9.98743 142.82834 37941 ft 520 kts 354°
2026-04-24 02:05 10.05971 142.82355 37947 ft 520 kts 354°
2026-04-24 02:05 10.13198 142.81890 37951 ft 520 kts 354°
2026-04-24 02:06 10.20425 142.81418 37950 ft 520 kts 354°
2026-04-24 02:06 10.27649 142.80940 37958 ft 520 kts 353°
2026-04-24 02:07 10.34867 142.80461 37952 ft 519 kts 353°
2026-04-24 02:07 10.42035 142.79984 37958 ft 519 kts 353°
2026-04-24 02:08 10.49247 142.79505 37955 ft 519 kts 353°
2026-04-24 02:08 10.56457 142.79026 37959 ft 518 kts 353°
2026-04-24 02:09 10.63640 142.78550 38096 ft 514 kts 353°
2026-04-24 02:09 10.67183 142.78316 38556 ft 507 kts 353°
2026-04-24 02:09 10.70688 142.78085 38876 ft 502 kts 353°
2026-04-24 02:10 10.74164 142.77854 39096 ft 499 kts 353°
2026-04-24 02:10 10.77621 142.77624 39285 ft 498 kts 353°
2026-04-24 02:10 10.81078 142.77393 39430 ft 497 kts 353°
2026-04-24 02:10 10.84525 142.77162 39604 ft 495 kts 353°
2026-04-24 02:11 10.87918 142.76935 39761 ft 494 kts 353°
2026-04-24 02:11 10.91344 142.76707 39904 ft 493 kts 354°
2026-04-24 02:11 10.98197 142.76250 39941 ft 494 kts 353°
2026-04-24 02:12 11.05059 142.75792 39940 ft 494 kts 353°
2026-04-24 02:12 11.11928 142.75334 39945 ft 494 kts 354°
2026-04-24 02:13 11.18783 142.74877 39946 ft 493 kts 353°
2026-04-24 02:13 11.25644 142.74419 39944 ft 494 kts 354°
2026-04-24 02:14 11.32497 142.73961 39947 ft 494 kts 353°
2026-04-24 02:14 11.39302 142.73507 39948 ft 494 kts 354°
2026-04-24 02:15 11.46153 142.73049 39946 ft 492 kts 353°
2026-04-24 02:15 11.52986 142.72593 39950 ft 492 kts 353°
2026-04-24 02:16 11.59816 142.72135 39949 ft 492 kts 354°
2026-04-24 02:16 11.66652 142.71678 39950 ft 492 kts 353°
2026-04-24 02:17 11.73432 142.71223 39946 ft 491 kts 353°
2026-04-24 02:17 11.80255 142.70767 39954 ft 491 kts 354°
2026-04-24 02:18 11.87084 142.70309 39951 ft 491 kts 354°
2026-04-24 02:18 11.93903 142.69851 39951 ft 491 kts 354°
2026-04-24 02:19 12.00726 142.69393 39952 ft 491 kts 353°
2026-04-24 02:19 12.07560 142.68934 39953 ft 492 kts 354°
2026-04-24 02:20 12.14404 142.68475 39956 ft 493 kts 354°
2026-04-24 02:20 12.21245 142.68015 39954 ft 492 kts 353°
2026-04-24 02:21 12.28082 142.67562 39955 ft 493 kts 354°
2026-04-24 02:21 12.34923 142.67099 39955 ft 492 kts 354°
2026-04-24 02:22 12.41760 142.66636 39956 ft 492 kts 354°
2026-04-24 02:22 12.48600 142.66173 39958 ft 493 kts 354°
2026-04-24 02:23 12.55440 142.65712 39959 ft 492 kts 353°
2026-04-24 02:23 12.62288 142.65251 39958 ft 494 kts 353°
2026-04-24 02:24 12.69145 142.64788 39961 ft 495 kts 354°
2026-04-24 02:24 12.76008 142.64325 39961 ft 499 kts 354°
2026-04-24 02:25 12.82969 142.63854 39960 ft 502 kts 354°
2026-04-24 02:25 12.89956 142.63383 39960 ft 504 kts 353°
2026-04-24 02:26 12.96956 142.62910 39960 ft 505 kts 354°
2026-04-24 02:26 13.03970 142.62436 39963 ft 505 kts 353°
2026-04-24 02:27 13.10990 142.61961 39968 ft 505 kts 354°
2026-04-24 02:27 13.18006 142.61486 39969 ft 505 kts 354°
2026-04-24 02:28 13.25019 142.61010 39968 ft 505 kts 354°
2026-04-24 02:28 13.32034 142.60534 39966 ft 505 kts 354°
2026-04-24 02:29 13.39045 142.60059 39968 ft 505 kts 353°
2026-04-24 02:29 13.46057 142.59583 39971 ft 505 kts 354°
2026-04-24 02:30 13.53066 142.59107 39974 ft 505 kts 353°
2026-04-24 02:30 13.60038 142.58633 39976 ft 505 kts 353°
2026-04-24 02:31 13.67056 142.58156 39973 ft 505 kts 353°
2026-04-24 02:31 13.74074 142.57678 39981 ft 505 kts 354°
2026-04-24 02:32 13.81087 142.57200 39979 ft 505 kts 354°
2026-04-24 02:32 13.88095 142.56723 39977 ft 505 kts 354°
2026-04-24 02:33 13.95121 142.56244 39985 ft 505 kts 354°
2026-04-24 02:33 14.02079 142.55770 39983 ft 505 kts 354°
2026-04-24 02:34 14.09093 142.55291 39989 ft 504 kts 354°
2026-04-24 02:34 14.16105 142.54812 39980 ft 504 kts 354°
2026-04-24 02:35 14.23110 142.54334 39980 ft 504 kts 353°
2026-04-24 02:35 14.30112 142.53855 39985 ft 504 kts 354°
2026-04-24 02:36 14.37117 142.53375 39990 ft 504 kts 354°
2026-04-24 02:36 14.44118 142.52896 39986 ft 504 kts 354°
2026-04-24 02:37 14.51114 142.52417 39984 ft 504 kts 354°
2026-04-24 02:37 14.58112 142.51937 39990 ft 504 kts 354°
2026-04-24 02:38 14.65106 142.51458 39990 ft 504 kts 354°
2026-04-24 02:38 14.72051 142.50981 39998 ft 503 kts 354°
2026-04-24 02:39 14.79040 142.50501 39993 ft 503 kts 354°
2026-04-24 02:39 14.86026 142.50021 39992 ft 503 kts 354°
2026-04-24 02:40 14.93007 142.49541 39992 ft 503 kts 354°
2026-04-24 02:40 14.99989 142.49060 39995 ft 503 kts 354°
2026-04-24 02:41 15.06968 142.48580 39995 ft 503 kts 354°
2026-04-24 02:41 15.13949 142.48099 39996 ft 503 kts 354°
2026-04-24 02:42 15.20927 142.47618 39992 ft 502 kts 354°
2026-04-24 02:42 15.27908 142.47136 39995 ft 502 kts 354°
2026-04-24 02:43 15.33706 142.46736 39996 ft 502 kts 354°
2026-04-24 02:43 15.40682 142.46254 39995 ft 502 kts 354°
2026-04-24 02:44 15.47665 142.45771 39994 ft 502 kts 354°
2026-04-24 02:44 15.54636 142.45289 39998 ft 502 kts 354°
2026-04-24 02:45 15.61575 142.44809 39998 ft 502 kts 354°
2026-04-24 02:45 15.68548 142.44326 40007 ft 502 kts 354°
2026-04-24 02:46 15.75519 142.43843 40008 ft 502 kts 354°
2026-04-24 02:46 15.82490 142.43359 40006 ft 502 kts 354°
2026-04-24 02:47 15.89460 142.42876 40004 ft 502 kts 354°
2026-04-24 02:47 15.96379 142.42395 40018 ft 502 kts 354°
2026-04-24 02:48 16.03284 142.41540 40002 ft 498 kts 343°
2026-04-24 02:48 16.09615 142.38799 40005 ft 492 kts 325°
2026-04-24 02:49 16.14993 142.34441 40005 ft 490 kts 317°
2026-04-24 02:49 16.20123 142.29773 40011 ft 490 kts 317°
2026-04-24 02:50 16.25239 142.25067 40010 ft 490 kts 317°
2026-04-24 02:50 16.30374 142.20385 40011 ft 491 kts 317°
2026-04-24 02:51 16.35523 142.15716 40010 ft 491 kts 317°
2026-04-24 02:51 16.40679 142.11045 40010 ft 491 kts 317°
2026-04-24 02:52 16.45796 142.06402 40012 ft 491 kts 317°
2026-04-24 02:52 16.50949 142.01722 40016 ft 491 kts 317°
2026-04-24 02:53 16.56099 141.97043 40016 ft 491 kts 317°
2026-04-24 02:53 16.61256 141.92362 40014 ft 491 kts 318°
2026-04-24 02:54 16.66430 141.87690 40015 ft 491 kts 318°
2026-04-24 02:54 16.71597 141.83025 40019 ft 491 kts 318°
2026-04-24 02:55 16.76726 141.78388 40014 ft 491 kts 318°
2026-04-24 02:55 16.81886 141.73718 40019 ft 491 kts 318°
2026-04-24 02:56 16.87048 141.69041 40015 ft 491 kts 318°
2026-04-24 02:56 16.92213 141.64358 40017 ft 491 kts 318°
2026-04-24 02:57 16.97349 141.59699 40017 ft 491 kts 318°
2026-04-24 02:57 17.02536 141.54988 40017 ft 491 kts 318°
2026-04-24 02:58 17.07655 141.50338 40021 ft 490 kts 317°
2026-04-24 02:58 17.12802 141.45656 40022 ft 490 kts 318°
2026-04-24 02:59 17.17951 141.40971 40021 ft 491 kts 318°
2026-04-24 02:59 17.23107 141.36275 40021 ft 491 kts 318°
2026-04-24 03:00 17.28258 141.31579 40020 ft 491 kts 318°
2026-04-24 03:00 17.33410 141.26881 40027 ft 490 kts 318°
2026-04-24 03:01 17.38520 141.22216 40017 ft 491 kts 318°
2026-04-24 03:01 17.43658 141.17522 40017 ft 490 kts 318°
2026-04-24 03:02 17.48790 141.12830 40017 ft 490 kts 318°
2026-04-24 03:02 17.53927 141.08130 40017 ft 490 kts 318°
2026-04-24 03:03 17.59065 141.03424 40018 ft 491 kts 318°
2026-04-24 03:03 17.64209 140.98711 40019 ft 490 kts 318°
2026-04-24 03:04 17.69342 140.94003 40018 ft 490 kts 318°
2026-04-24 03:04 17.74443 140.89321 40017 ft 490 kts 318°
2026-04-24 03:05 17.79572 140.84609 40016 ft 490 kts 319°
2026-04-24 03:05 17.84699 140.79896 40019 ft 490 kts 319°
2026-04-24 03:06 17.89828 140.75177 40022 ft 490 kts 319°
2026-04-24 03:06 17.94968 140.70444 40026 ft 491 kts 319°
2026-04-24 03:07 18.00078 140.65735 40024 ft 491 kts 319°
2026-04-24 03:07 18.05208 140.61004 40023 ft 490 kts 319°
2026-04-24 03:08 18.12902 140.53900 40026 ft 491 kts 319°
2026-04-24 03:09 18.18032 140.49160 40024 ft 491 kts 319°
2026-04-24 03:09 18.23131 140.44444 40027 ft 492 kts 319°
2026-04-24 03:10 18.28275 140.39683 40026 ft 492 kts 319°
2026-04-24 03:10 18.33417 140.34919 40026 ft 492 kts 319°
2026-04-24 03:11 18.38557 140.30153 40027 ft 491 kts 319°
2026-04-24 03:11 18.43694 140.25386 40030 ft 492 kts 319°
2026-04-24 03:12 18.48834 140.20612 40024 ft 493 kts 319°
2026-04-24 03:12 18.53981 140.15829 40026 ft 494 kts 319°
2026-04-24 03:13 18.59100 140.11067 40024 ft 494 kts 319°
2026-04-24 03:13 18.64248 140.06274 40026 ft 494 kts 319°
2026-04-24 03:14 18.69407 140.01467 40027 ft 494 kts 319°
2026-04-24 03:14 18.74557 139.96664 40024 ft 494 kts 319°
2026-04-24 03:15 18.79718 139.91848 40025 ft 494 kts 319°
2026-04-24 03:15 18.84839 139.87063 40026 ft 494 kts 319°
2026-04-24 03:16 18.89992 139.82245 40028 ft 495 kts 319°
2026-04-24 03:16 18.95147 139.77420 40028 ft 495 kts 319°
2026-04-24 03:17 19.00299 139.72596 40031 ft 494 kts 319°
2026-04-24 03:17 19.05442 139.67774 40031 ft 494 kts 319°
2026-04-24 03:18 19.10589 139.62945 40028 ft 494 kts 320°
2026-04-24 03:18 19.15730 139.58117 40031 ft 494 kts 319°
2026-04-24 03:19 19.20837 139.53318 40031 ft 494 kts 319°
2026-04-24 03:19 19.25975 139.48484 40031 ft 494 kts 320°
2026-04-24 03:20 19.31114 139.43646 40029 ft 494 kts 320°
2026-04-24 03:20 19.36240 139.38816 40028 ft 493 kts 320°
2026-04-24 03:21 19.41365 139.33982 40031 ft 493 kts 320°
2026-04-24 03:21 19.46490 139.29145 40031 ft 493 kts 320°
2026-04-24 03:22 19.51609 139.24309 40034 ft 492 kts 319°
2026-04-24 03:22 19.56688 139.19506 40034 ft 492 kts 319°
2026-04-24 03:23 19.61791 139.14676 40031 ft 492 kts 319°
2026-04-24 03:23 19.66893 139.09842 40031 ft 492 kts 319°
2026-04-24 03:24 19.72002 139.04999 40031 ft 492 kts 319°
2026-04-24 03:24 19.77109 139.00153 40032 ft 492 kts 319°
2026-04-24 03:25 19.82212 138.95305 40032 ft 492 kts 319°
2026-04-24 03:25 19.87320 138.90449 40031 ft 493 kts 319°
2026-04-24 03:26 19.92428 138.85589 40032 ft 492 kts 319°
2026-04-24 03:26 19.97531 138.80728 40034 ft 493 kts 319°
2026-04-24 03:27 20.02636 138.75862 40034 ft 493 kts 319°
2026-04-24 03:27 20.07709 138.71022 40035 ft 493 kts 319°
2026-04-24 03:28 20.12813 138.66148 40034 ft 493 kts 319°
2026-04-24 03:28 20.17916 138.61269 40034 ft 493 kts 319°
2026-04-24 03:29 20.23017 138.56389 40034 ft 493 kts 319°
2026-04-24 03:29 20.28119 138.51502 40034 ft 493 kts 319°
2026-04-24 03:30 20.33220 138.46614 40034 ft 493 kts 318°
2026-04-24 03:30 20.38313 138.41727 40032 ft 492 kts 318°
2026-04-24 03:31 20.43370 138.36870 40035 ft 493 kts 318°
2026-04-24 03:31 20.48464 138.31974 40040 ft 493 kts 318°
2026-04-24 03:32 20.53553 138.27078 40034 ft 492 kts 318°
2026-04-24 03:32 20.58637 138.22182 40031 ft 492 kts 318°
2026-04-24 03:33 20.63720 138.17283 40037 ft 492 kts 318°
2026-04-24 03:33 20.68805 138.12378 40035 ft 492 kts 317°
2026-04-24 03:34 20.73872 138.07484 40030 ft 491 kts 317°
2026-04-24 03:34 20.78082 138.03414 40034 ft 490 kts 317°
2026-04-24 03:35 20.83140 137.98522 40034 ft 491 kts 317°
2026-04-24 03:35 20.88207 137.93616 40037 ft 490 kts 317°
2026-04-24 03:36 20.93263 137.88715 40032 ft 489 kts 317°
2026-04-24 03:36 20.98315 137.83845 40031 ft 489 kts 319°
2026-04-24 03:37 21.03954 137.79778 40032 ft 490 kts 328°
2026-04-24 03:37 21.09855 137.76135 40034 ft 489 kts 329°
2026-04-24 03:38 21.15782 137.72567 40036 ft 488 kts 329°
2026-04-24 03:38 21.21665 137.69014 40034 ft 488 kts 329°
2026-04-24 03:39 21.27585 137.65418 40041 ft 488 kts 329°
2026-04-24 03:39 21.33493 137.61820 40037 ft 487 kts 328°
2026-04-24 03:40 21.39384 137.58227 40035 ft 487 kts 328°
2026-04-24 03:40 21.45274 137.54631 40034 ft 487 kts 328°
2026-04-24 03:41 21.51169 137.51030 40035 ft 487 kts 328°
2026-04-24 03:41 21.57022 137.47452 40034 ft 486 kts 328°
2026-04-24 03:42 21.62903 137.43852 40032 ft 486 kts 328°
2026-04-24 03:42 21.68786 137.40249 40034 ft 486 kts 328°
2026-04-24 03:43 21.74662 137.36646 40034 ft 487 kts 328°
2026-04-24 03:43 21.80546 137.33035 40034 ft 487 kts 328°
2026-04-24 03:44 21.86435 137.29417 40034 ft 487 kts 328°
2026-04-24 03:44 21.92319 137.25799 40035 ft 486 kts 328°
2026-04-24 03:45 21.98178 137.22193 40032 ft 485 kts 328°
2026-04-24 03:45 22.04030 137.18587 40035 ft 485 kts 328°
2026-04-24 03:46 22.09853 137.14996 40035 ft 484 kts 328°
2026-04-24 03:46 22.15705 137.11384 40031 ft 484 kts 328°
2026-04-24 03:47 22.21549 137.07773 40030 ft 484 kts 328°
2026-04-24 03:47 22.27388 137.04162 40034 ft 484 kts 328°
2026-04-24 03:48 22.33229 137.00545 40033 ft 483 kts 328°
2026-04-24 03:48 22.39055 136.96935 40026 ft 483 kts 328°
2026-04-24 03:49 22.44886 136.93318 40034 ft 483 kts 328°
2026-04-24 03:49 22.50712 136.89701 40034 ft 483 kts 328°
2026-04-24 03:50 22.56528 136.86086 40029 ft 482 kts 328°
2026-04-24 03:50 22.62342 136.82469 40029 ft 481 kts 328°
2026-04-24 03:51 22.68116 136.78873 40031 ft 481 kts 328°
2026-04-24 03:51 22.73923 136.75254 40026 ft 481 kts 328°
2026-04-24 03:52 22.79732 136.71629 40026 ft 482 kts 328°
2026-04-24 03:52 22.85539 136.68002 40023 ft 482 kts 328°
2026-04-24 03:53 22.91350 136.64370 40021 ft 482 kts 327°
2026-04-24 03:53 22.97169 136.60728 40020 ft 482 kts 327°
2026-04-24 03:54 23.02943 136.57110 40021 ft 482 kts 327°
2026-04-24 03:54 23.08754 136.53467 40023 ft 482 kts 327°
2026-04-24 03:55 23.14569 136.49817 40020 ft 482 kts 327°
2026-04-24 03:55 23.20375 136.46169 40020 ft 482 kts 327°
2026-04-24 03:56 23.26184 136.42514 40030 ft 482 kts 327°
2026-04-24 03:56 23.31991 136.38859 40020 ft 482 kts 327°
2026-04-24 03:57 23.37799 136.35198 40020 ft 482 kts 327°
2026-04-24 03:57 23.43607 136.31533 40021 ft 482 kts 327°
2026-04-24 03:58 23.49376 136.27890 40018 ft 483 kts 326°
2026-04-24 03:58 23.55195 136.24211 40018 ft 483 kts 326°
2026-04-24 03:59 23.61014 136.20528 40018 ft 483 kts 326°
2026-04-24 03:59 23.66828 136.16845 40015 ft 483 kts 326°
2026-04-24 04:00 23.72649 136.13154 40014 ft 484 kts 326°
2026-04-24 04:00 23.78464 136.09462 40015 ft 484 kts 326°
2026-04-24 04:01 23.84285 136.05763 40017 ft 484 kts 326°
2026-04-24 04:01 23.90104 136.02061 40011 ft 483 kts 326°
2026-04-24 04:02 23.95914 135.98361 40008 ft 483 kts 326°
2026-04-24 04:02 24.01687 135.94680 40004 ft 483 kts 326°
2026-04-24 04:03 24.07497 135.90972 40006 ft 483 kts 326°
2026-04-24 04:03 24.13308 135.87260 40001 ft 483 kts 326°
2026-04-24 04:04 24.19113 135.83548 40005 ft 483 kts 326°
2026-04-24 04:04 24.24915 135.79834 40005 ft 482 kts 325°
2026-04-24 04:05 24.30707 135.76122 39997 ft 482 kts 325°
2026-04-24 04:05 24.36500 135.72404 40000 ft 483 kts 325°
2026-04-24 04:06 24.42298 135.68681 40000 ft 482 kts 325°
2026-04-24 04:06 24.48077 135.64966 39997 ft 481 kts 325°
2026-04-24 04:07 24.53850 135.61249 39993 ft 481 kts 325°
2026-04-24 04:07 24.59587 135.57552 39995 ft 481 kts 325°
2026-04-24 04:08 24.65367 135.53824 39993 ft 481 kts 325°
2026-04-24 04:08 24.71139 135.50097 39993 ft 481 kts 325°
2026-04-24 04:09 24.76915 135.46363 39997 ft 481 kts 325°
2026-04-24 04:09 24.82637 135.42660 39988 ft 480 kts 325°
2026-04-24 04:10 24.88404 135.38924 39984 ft 480 kts 325°
2026-04-24 04:10 24.94154 135.35195 39997 ft 480 kts 324°
2026-04-24 04:11 25.02779 135.29594 39981 ft 479 kts 324°
2026-04-24 04:11 25.08531 135.25853 39970 ft 479 kts 324°
2026-04-24 04:12 25.14240 135.22136 39984 ft 479 kts 324°
2026-04-24 04:12 25.19982 135.18394 39975 ft 478 kts 324°
2026-04-24 04:13 25.25713 135.14654 39974 ft 478 kts 324°
2026-04-24 04:13 25.31443 135.10911 39977 ft 478 kts 324°
2026-04-24 04:14 25.37170 135.07165 39975 ft 478 kts 324°
2026-04-24 04:14 25.42906 135.03411 39978 ft 479 kts 324°
2026-04-24 04:15 25.48633 134.99657 39977 ft 479 kts 324°
2026-04-24 04:15 25.54270 134.95752 39967 ft 477 kts 320°
2026-04-24 04:16 25.59699 134.91532 39969 ft 476 kts 319°
2026-04-24 04:16 25.65087 134.87326 39969 ft 477 kts 320°
2026-04-24 04:17 25.70547 134.83137 39966 ft 477 kts 320°
2026-04-24 04:17 25.76028 134.78966 39967 ft 477 kts 320°
2026-04-24 04:18 25.81505 134.74802 39963 ft 478 kts 320°
2026-04-24 04:18 25.86987 134.70621 39963 ft 478 kts 320°
2026-04-24 04:19 25.92466 134.66437 39958 ft 478 kts 320°
2026-04-24 04:19 25.97947 134.62249 39958 ft 478 kts 320°
2026-04-24 04:20 26.03419 134.58062 39955 ft 477 kts 319°
2026-04-24 04:20 26.08858 134.53896 39969 ft 477 kts 319°
2026-04-24 04:21 26.14308 134.49717 39948 ft 475 kts 319°
2026-04-24 04:21 26.19750 134.45539 39952 ft 475 kts 319°
2026-04-24 04:22 26.24275 134.42059 39959 ft 475 kts 319°
2026-04-24 04:22 26.30598 134.37192 39950 ft 474 kts 319°
2026-04-24 04:23 26.35154 134.33682 39946 ft 474 kts 319°
2026-04-24 04:23 26.40582 134.29495 39945 ft 474 kts 319°
2026-04-24 04:24 26.45963 134.25340 39941 ft 473 kts 319°
2026-04-24 04:24 26.51372 134.21159 39937 ft 473 kts 318°
2026-04-24 04:25 26.56784 134.16969 39935 ft 473 kts 318°
2026-04-24 04:25 26.62192 134.12778 39935 ft 473 kts 318°
2026-04-24 04:26 26.67602 134.08581 39933 ft 473 kts 318°
2026-04-24 04:26 26.73010 134.04383 39938 ft 473 kts 318°
2026-04-24 04:27 26.78374 134.00219 39935 ft 472 kts 317°
2026-04-24 04:27 26.83758 133.96020 39924 ft 472 kts 317°
2026-04-24 04:28 26.89142 133.91816 39924 ft 472 kts 317°
2026-04-24 04:28 26.94527 133.87610 39922 ft 472 kts 317°
2026-04-24 04:29 26.99912 133.83401 39925 ft 472 kts 317°
2026-04-24 04:29 27.05298 133.79186 39921 ft 472 kts 317°
2026-04-24 04:30 27.10678 133.74970 39924 ft 471 kts 317°
2026-04-24 04:30 27.16054 133.70753 39921 ft 471 kts 317°
2026-04-24 04:31 27.21425 133.66534 39919 ft 471 kts 317°
2026-04-24 04:31 27.26769 133.62331 39923 ft 471 kts 317°
2026-04-24 04:32 27.32140 133.58103 39919 ft 471 kts 317°
2026-04-24 04:32 27.37510 133.53871 39919 ft 470 kts 316°
2026-04-24 04:33 27.42861 133.49648 39919 ft 469 kts 316°
2026-04-24 04:33 27.48205 133.45425 39919 ft 469 kts 316°
2026-04-24 04:34 27.53547 133.41197 39916 ft 469 kts 316°
2026-04-24 04:34 27.58852 133.36996 39913 ft 468 kts 316°
2026-04-24 04:35 27.64175 133.32775 39914 ft 468 kts 316°
2026-04-24 04:35 27.69491 133.28555 39911 ft 466 kts 316°
2026-04-24 04:36 27.74800 133.24335 39915 ft 466 kts 316°
2026-04-24 04:36 27.80103 133.20111 39915 ft 466 kts 316°
2026-04-24 04:37 27.85409 133.15881 39911 ft 467 kts 316°
2026-04-24 04:37 27.90685 133.11676 39911 ft 467 kts 316°
2026-04-24 04:38 27.95994 133.07447 39928 ft 467 kts 316°
2026-04-24 04:38 28.01311 133.03208 39910 ft 466 kts 316°
2026-04-24 04:39 28.06611 132.98978 39910 ft 465 kts 316°
2026-04-24 04:39 28.11898 132.94750 39911 ft 465 kts 316°
2026-04-24 04:40 28.17185 132.90516 39911 ft 465 kts 316°
2026-04-24 04:40 28.22468 132.86281 39912 ft 465 kts 316°
2026-04-24 04:41 28.27748 132.82044 39914 ft 465 kts 316°
2026-04-24 04:41 28.32993 132.77831 39907 ft 464 kts 315°
2026-04-24 04:42 28.38268 132.73594 39911 ft 463 kts 315°
2026-04-24 04:42 28.43518 132.69361 39903 ft 463 kts 315°
2026-04-24 04:43 28.48762 132.65117 39906 ft 463 kts 315°
2026-04-24 04:43 28.54013 132.60866 39919 ft 463 kts 315°
2026-04-24 04:44 28.59230 132.56641 39901 ft 462 kts 315°
2026-04-24 04:44 28.64470 132.52394 39903 ft 462 kts 315°
2026-04-24 04:45 28.69713 132.48138 39904 ft 462 kts 315°
2026-04-24 04:45 28.74951 132.43881 39901 ft 462 kts 315°
2026-04-24 04:46 28.80184 132.39623 39912 ft 462 kts 315°
2026-04-24 04:46 28.85414 132.35362 39899 ft 462 kts 315°
2026-04-24 04:47 28.90645 132.31094 39922 ft 462 kts 315°
2026-04-24 04:47 28.95868 132.26830 39900 ft 461 kts 314°
2026-04-24 04:48 29.01082 132.22565 39899 ft 461 kts 314°
2026-04-24 04:48 29.06292 132.18297 39906 ft 461 kts 314°
2026-04-24 04:49 29.11500 132.14026 39901 ft 461 kts 314°
2026-04-24 04:49 29.16708 132.09750 39897 ft 461 kts 314°
2026-04-24 04:50 29.21916 132.05469 39896 ft 461 kts 314°
2026-04-24 04:50 29.27087 132.01217 39897 ft 460 kts 313°
2026-04-24 04:51 29.32291 131.96928 39905 ft 460 kts 313°
2026-04-24 04:51 29.37486 131.92639 39898 ft 460 kts 313°
2026-04-24 04:52 29.42678 131.88348 39896 ft 460 kts 313°
2026-04-24 04:52 29.47867 131.84048 39894 ft 460 kts 313°
2026-04-24 04:53 29.53054 131.79745 39894 ft 460 kts 313°
2026-04-24 04:53 29.58251 131.75430 39900 ft 461 kts 313°
2026-04-24 04:54 29.63524 131.71261 39898 ft 466 kts 315°
2026-04-24 04:54 29.69032 131.67277 39897 ft 468 kts 316°
2026-04-24 04:55 29.74543 131.63290 39897 ft 467 kts 316°
2026-04-24 04:55 29.80025 131.59257 39897 ft 467 kts 315°
2026-04-24 04:56 29.85485 131.55204 39935 ft 467 kts 315°
2026-04-24 04:56 29.90942 131.51144 39897 ft 466 kts 315°
2026-04-24 04:57 29.96389 131.47086 39897 ft 466 kts 315°
2026-04-24 04:57 30.01843 131.43024 39898 ft 466 kts 315°
2026-04-24 04:58 30.07263 131.38988 39898 ft 466 kts 315°
2026-04-24 04:58 30.12716 131.34913 39898 ft 466 kts 315°
2026-04-24 04:59 30.18161 131.30844 39901 ft 466 kts 314°
2026-04-24 04:59 30.23606 131.26774 39903 ft 466 kts 314°
2026-04-24 05:00 30.29038 131.22693 39905 ft 466 kts 314°
2026-04-24 05:00 30.34467 131.18603 39907 ft 466 kts 314°
2026-04-24 05:01 30.39902 131.14508 39908 ft 465 kts 314°
2026-04-24 05:01 30.45440 131.10543 39939 ft 477 kts 320°
2026-04-24 05:02 30.48548 131.09007 39912 ft 493 kts 328°
2026-04-24 05:02 30.51801 131.07831 39914 ft 498 kts 330°
2026-04-24 05:02 30.58533 131.05712 39909 ft 502 kts 332°
2026-04-24 05:03 30.65310 131.03689 39911 ft 502 kts 332°
2026-04-24 05:03 30.72065 131.01643 39917 ft 502 kts 332°
2026-04-24 05:04 30.78831 130.99563 39914 ft 502 kts 332°
2026-04-24 05:04 30.85594 130.97472 39915 ft 502 kts 332°
2026-04-24 05:05 30.92305 130.95394 39916 ft 502 kts 332°
2026-04-24 05:05 30.99073 130.93295 39917 ft 504 kts 331°
2026-04-24 05:06 31.05859 130.91189 39930 ft 505 kts 331°
2026-04-24 05:06 31.12661 130.89074 39905 ft 505 kts 332°
2026-04-24 05:07 31.19458 130.86971 39937 ft 506 kts 330°
2026-04-24 05:07 31.26248 130.84849 39915 ft 508 kts 330°
2026-04-24 05:08 31.33073 130.82714 39910 ft 508 kts 330°
2026-04-24 05:08 31.39903 130.80577 39918 ft 508 kts 330°
2026-04-24 05:09 31.46736 130.78438 39926 ft 508 kts 331°
2026-04-24 05:09 31.52413 130.76661 39914 ft 508 kts 330°
2026-04-24 05:10 31.59246 130.74524 39918 ft 507 kts 330°
2026-04-24 05:10 31.66072 130.72378 39950 ft 508 kts 330°
2026-04-24 05:11 31.72911 130.70216 39912 ft 509 kts 330°
2026-04-24 05:11 31.79756 130.68053 39911 ft 509 kts 330°
2026-04-24 05:12 31.86561 130.65903 39914 ft 509 kts 330°
2026-04-24 05:12 31.93415 130.63738 39909 ft 510 kts 330°
2026-04-24 05:13 32.03713 130.60472 39923 ft 511 kts 330°
2026-04-24 05:14 32.10579 130.58290 39916 ft 511 kts 330°
2026-04-24 05:14 32.17405 130.56114 39915 ft 510 kts 329°
2026-04-24 05:15 32.24270 130.53919 39922 ft 511 kts 330°
2026-04-24 05:15 32.31317 130.52126 39931 ft 533 kts 340°
2026-04-24 05:16 32.38777 130.51454 40025 ft 539 kts 342°
2026-04-24 05:16 32.46266 130.50898 40041 ft 538 kts 341°
2026-04-24 05:17 32.53677 130.50203 40051 ft 537 kts 341°
2026-04-24 05:17 32.61122 130.49475 40101 ft 537 kts 341°
2026-04-24 05:18 32.68567 130.48768 40092 ft 537 kts 341°
2026-04-24 05:18 32.76015 130.48074 40091 ft 536 kts 341°
2026-04-24 05:19 32.83447 130.47377 40165 ft 536 kts 341°
2026-04-24 05:19 32.90896 130.46666 40167 ft 535 kts 341°
2026-04-24 05:20 32.98256 130.45882 40175 ft 534 kts 340°
2026-04-24 05:20 33.05661 130.45078 40207 ft 533 kts 341°
2026-04-24 05:21 33.13067 130.44315 40210 ft 534 kts 341°
2026-04-24 05:21 33.20474 130.43604 40215 ft 534 kts 341°
2026-04-24 05:22 33.27876 130.42896 40280 ft 533 kts 342°
2026-04-24 05:22 33.35278 130.42190 40290 ft 533 kts 341°
2026-04-24 05:23 33.42667 130.41454 40314 ft 533 kts 342°
2026-04-24 05:23 33.50007 130.40733 40716 ft 523 kts 342°
2026-04-24 05:23 33.53616 130.40386 40936 ft 519 kts 342°
2026-04-24 05:24 33.57158 130.40038 40973 ft 516 kts 341°
2026-04-24 05:24 33.64250 130.38981 40968 ft 502 kts 332°
2026-04-24 05:24 33.67521 130.37740 40963 ft 485 kts 323°
2026-04-24 05:25 33.70479 130.35971 40975 ft 467 kts 314°
2026-04-24 05:25 33.75664 130.31478 40980 ft 457 kts 308°
2026-04-24 05:26 33.80633 130.26724 40985 ft 456 kts 308°
2026-04-24 05:26 33.85594 130.21928 40989 ft 458 kts 308°
2026-04-24 05:27 33.90581 130.17144 40989 ft 459 kts 308°
2026-04-24 05:27 33.95565 130.12381 40999 ft 461 kts 309°
2026-04-24 05:28 34.00595 130.07574 41000 ft 462 kts 309°
2026-04-24 05:28 34.05626 130.02760 41048 ft 462 kts 309°
2026-04-24 05:29 34.10669 129.97928 41008 ft 463 kts 309°
2026-04-24 05:29 34.15717 129.93078 41011 ft 464 kts 309°
2026-04-24 05:30 34.20765 129.88222 41032 ft 464 kts 309°
2026-04-24 05:30 34.25813 129.83357 41035 ft 464 kts 310°
2026-04-24 05:31 34.30854 129.78520 41040 ft 465 kts 310°
2026-04-24 05:31 34.35938 129.73667 41034 ft 466 kts 310°
2026-04-24 05:32 34.41025 129.68803 41034 ft 466 kts 310°
2026-04-24 05:32 34.46103 129.63935 41045 ft 466 kts 310°
2026-04-24 05:33 34.51179 129.59058 41047 ft 465 kts 310°
2026-04-24 05:33 34.56256 129.54172 41046 ft 466 kts 311°
2026-04-24 05:34 34.63855 129.46840 41057 ft 467 kts 311°
2026-04-24 05:34 34.68941 129.41924 41058 ft 467 kts 311°
2026-04-24 05:35 34.74021 129.37007 41061 ft 467 kts 311°
2026-04-24 05:35 34.79114 129.32074 41064 ft 468 kts 311°
2026-04-24 05:36 34.84213 129.27151 41074 ft 468 kts 311°
2026-04-24 05:36 34.89324 129.22214 41084 ft 469 kts 311°
2026-04-24 05:37 34.94428 129.17273 41075 ft 469 kts 311°
2026-04-24 05:37 34.99540 129.12317 41075 ft 469 kts 311°
2026-04-24 05:38 35.04656 129.07348 41078 ft 470 kts 311°
2026-04-24 05:38 35.09745 129.02400 41072 ft 472 kts 311°
2026-04-24 05:39 35.15395 128.98115 41080 ft 484 kts 322°
2026-04-24 05:39 35.21474 128.94424 41079 ft 490 kts 324°
2026-04-24 05:40 35.27644 128.90822 41078 ft 492 kts 324°
2026-04-24 05:40 35.33817 128.87210 41067 ft 491 kts 324°
2026-04-24 05:41 35.39995 128.83565 41067 ft 492 kts 324°
2026-04-24 05:41 35.46157 128.79904 41076 ft 492 kts 324°
2026-04-24 05:42 35.52316 128.76241 41070 ft 492 kts 325°
2026-04-24 05:42 35.58472 128.72571 41062 ft 491 kts 324°
2026-04-24 05:43 35.64573 128.68919 41070 ft 491 kts 324°
2026-04-24 05:43 35.70727 128.65235 41100 ft 492 kts 325°
2026-04-24 05:44 35.76876 128.61549 41062 ft 491 kts 326°
2026-04-24 05:44 35.82511 128.57082 41070 ft 472 kts 310°
2026-04-24 05:45 35.87338 128.51647 41074 ft 469 kts 308°
2026-04-24 05:45 35.92026 128.46060 41071 ft 468 kts 307°
2026-04-24 05:46 35.96637 128.40531 41059 ft 458 kts 307°
2026-04-24 05:46 36.01195 128.35075 41074 ft 455 kts 307°
2026-04-24 05:47 36.05743 128.29626 41052 ft 456 kts 308°